Date String (YYYY-MM-DD hh:mm:ss) UTC,Instrument flags,Ambient pressure (hPa),Sample flow (lpm),Bypass flow (lpm),Sample temperature (°C),Ambient temperature (°C),ASC tube jacket temperature (°C),LED temperature (°C),Box temperature (°C),Sample RH (%),Span deviation,Mass concentration (μg/m³),Mass concentration (μg/m³),Mass concentration (μg/m³)
DateTimeUTC,F1_M11,P_M11,Q1_M11,Q2_M11,T1_M11,T2_M11,T3_M11,T4_M11,T5_M11,U1_M11,ZSPAN_M11,X0_M11,X2_M11,X1_M11
2022-06-06 13:00:00,,0822.8,5.00,0.00,30.5,29.5,00.0,39.4,32.3,23.2,0000.0,0008.82,0003.92,0002.27
2022-06-06 13:01:00,,0822.8,4.99,0.00,30.5,29.4,00.0,39.4,32.3,22.7,0000.0,0009.09,0003.93,0002.29
2022-06-06 13:02:00,,0822.7,5.00,0.00,30.5,29.4,00.0,39.4,32.3,22.3,0000.0,0009.28,0003.92,0002.28
2022-06-06 13:03:00,,0822.7,5.01,0.00,30.5,29.4,00.0,39.4,32.3,21.9,0000.0,0009.51,0003.97,0002.28
2022-06-06 13:04:00,,0822.8,4.99,0.00,30.5,29.4,00.0,39.4,32.3,21.9,0000.0,0009.65,0003.96,0002.27
2022-06-06 13:05:00,,0822.7,5.00,0.00,30.5,29.4,00.0,39.4,32.3,21.8,0000.0,0010.27,0003.94,0002.26
2022-06-06 13:06:00,,0822.7,5.00,0.00,30.5,29.5,00.0,39.4,32.3,21.7,0000.0,0010.11,0003.89,0002.26
2022-06-06 13:07:00,,0822.7,5.01,0.00,30.5,29.5,00.0,39.4,32.3,21.7,0000.0,0010.18,0003.87,0002.25
2022-06-06 13:08:00,,0822.8,4.99,0.00,30.5,29.5,00.0,39.4,32.3,22.3,0000.0,0010.66,0003.85,0002.23
2022-06-06 13:09:00,,0822.9,4.99,0.00,30.5,29.5,00.0,39.4,32.3,22.3,0000.0,0010.51,0003.79,0002.20
2022-06-06 13:10:00,,0822.9,5.01,0.00,30.5,29.5,00.0,39.4,32.4,22.3,0000.0,0010.45,0003.78,0002.18
2022-06-06 13:11:00,,0823.0,4.99,0.00,30.5,29.5,00.0,39.4,32.4,22.2,0000.0,0010.48,0003.80,0002.19
2022-06-06 13:12:00,,0822.9,5.00,0.00,30.5,29.5,00.0,39.4,32.4,22.5,0000.0,0010.54,0003.81,0002.17
2022-06-06 13:13:00,,0823.0,5.01,0.00,30.5,29.5,00.0,39.4,32.4,22.7,0000.0,0010.56,0003.79,0002.15
2022-06-06 13:14:00,,0823.0,5.01,0.00,30.5,29.5,00.0,39.4,32.4,22.6,0000.0,0010.39,0003.75,0002.14
2022-06-06 13:15:00,,0823.0,4.99,0.00,30.5,29.5,00.0,39.4,32.4,23.1,0000.0,0010.31,0003.71,0002.14
2022-06-06 13:16:00,,0823.1,4.98,0.00,30.5,29.5,00.0,39.5,32.4,22.8,0000.0,0009.83,0003.73,0002.13
2022-06-06 13:17:00,,0823.1,5.01,0.00,30.6,29.5,00.0,39.5,32.4,22.6,0000.0,0009.68,0003.75,0002.11
2022-06-06 13:18:00,,0823.0,4.99,0.00,30.6,29.5,00.0,39.5,32.4,22.1,0000.0,0010.11,0003.77,0002.07
2022-06-06 13:19:00,,0823.0,5.00,0.00,30.6,29.5,00.0,39.5,32.4,22.4,0000.0,0009.70,0003.77,0002.08
2022-06-06 13:20:00,,0823.0,5.00,0.00,30.6,29.5,00.0,39.5,32.4,22.2,0000.0,0009.75,0003.80,0002.10
2022-06-06 13:21:00,,0823.0,4.99,0.00,30.6,29.5,00.0,39.5,32.4,22.0,0000.0,0009.76,0003.78,0002.10
2022-06-06 13:22:00,,0823.1,5.01,0.00,30.6,29.5,00.0,39.5,32.4,21.7,0000.0,0009.90,0003.76,0002.09
2022-06-06 13:23:00,,0823.1,5.00,0.00,30.6,29.5,00.0,39.5,32.4,21.6,0000.0,0009.97,0003.78,0002.07
2022-06-06 13:24:00,,0823.1,5.00,0.00,30.6,29.5,00.0,39.5,32.4,21.8,0000.0,0010.93,0003.79,0002.07
2022-06-06 13:25:00,,0823.1,5.00,0.00,30.6,28.8,00.0,39.4,32.2,22.3,0000.0,0011.15,0003.80,0002.07
2022-06-06 13:26:00,,0823.1,4.99,0.00,30.5,27.8,00.0,39.3,32.0,21.8,0000.0,0011.57,0003.82,0002.07
2022-06-06 13:27:00,,0823.1,5.01,0.00,30.3,27.4,00.0,39.2,31.8,21.9,0000.0,0011.53,0003.84,0002.09
2022-06-06 13:28:00,,0823.0,5.00,0.00,30.2,27.4,00.0,39.2,31.7,22.2,0000.0,0011.53,0003.83,0002.10
2022-06-06 13:29:00,,0823.0,5.00,0.00,30.1,27.5,00.0,39.2,31.7,22.8,0000.0,0011.13,0003.78,0002.10
2022-06-06 13:30:00,,0823.0,5.00,0.00,30.1,27.6,00.0,39.1,31.7,22.6,0000.0,0010.85,0003.79,0002.11
2022-06-06 13:31:00,,0823.0,5.00,0.00,30.0,27.8,00.0,39.1,31.7,22.6,0000.0,0010.94,0003.80,0002.09
2022-06-06 13:32:00,,0823.1,4.99,0.00,30.0,27.9,00.0,39.1,31.7,22.7,0000.0,0011.11,0003.82,0002.07
2022-06-06 13:33:00,,0823.1,5.01,0.00,30.0,28.0,00.0,39.0,31.7,22.8,0000.0,0011.49,0003.86,0002.08
2022-06-06 13:34:00,,0823.1,5.01,0.00,30.0,28.2,00.0,39.0,31.7,23.4,0000.0,0011.21,0003.83,0002.07
2022-06-06 13:35:00,,0823.1,4.99,0.00,29.9,28.3,00.0,39.0,31.7,23.5,0000.0,0010.63,0003.79,0002.07
2022-06-06 13:36:00,,0823.1,5.01,0.00,29.9,28.4,00.0,39.0,31.7,23.4,0000.0,0009.73,0003.78,0002.06
2022-06-06 13:37:00,,0823.1,5.01,0.00,29.9,28.4,00.0,38.9,31.7,23.4,0000.0,0009.43,0003.76,0002.04
2022-06-06 13:38:00,,0823.1,5.01,0.00,29.9,28.5,00.0,38.9,31.7,22.8,0000.0,0009.26,0003.71,0002.02
2022-06-06 13:39:00,,0823.1,4.98,0.00,29.9,28.6,00.0,38.9,31.8,22.5,0000.0,0009.34,0003.69,0002.02
2022-06-06 13:40:00,,0823.1,5.01,0.00,29.9,28.7,00.0,38.9,31.8,22.6,0000.0,0009.64,0003.74,0002.03
2022-06-06 13:41:00,,0823.1,4.99,0.00,30.0,28.7,00.0,38.9,31.8,23.3,0000.0,0010.29,0003.80,0002.04
2022-06-06 13:42:00,,0823.2,5.00,0.00,30.0,28.8,00.0,38.9,31.8,23.9,0000.0,0010.62,0003.79,0002.04
2022-06-06 13:43:00,,0823.2,5.01,0.00,30.0,28.8,00.0,38.9,31.8,24.3,0000.0,0010.61,0003.79,0002.05
2022-06-06 13:44:00,,0823.3,5.00,0.00,30.0,28.8,00.0,38.9,31.8,24.1,0000.0,0010.04,0003.75,0002.03
2022-06-06 13:45:00,,0823.3,5.00,0.00,30.0,28.9,00.0,38.9,31.9,23.9,0000.0,0010.05,0003.76,0002.03
2022-06-06 13:46:00,,0823.3,5.00,0.00,30.0,28.9,00.0,38.9,31.9,23.4,0000.0,0009.66,0003.74,0002.04
2022-06-06 13:47:00,,0823.4,4.99,0.00,30.0,28.9,00.0,38.9,31.9,23.6,0000.0,0009.64,0003.73,0002.04
2022-06-06 13:48:00,,0823.3,5.01,0.00,30.0,29.0,00.0,38.9,31.9,26.6,0000.0,0010.27,0003.79,0002.06
2022-06-06 13:49:00,,0823.3,5.01,0.00,30.0,29.0,00.0,38.9,31.9,27.8,0000.0,0010.13,0003.79,0002.06
2022-06-06 13:50:00,,0823.3,5.00,0.00,30.1,29.0,00.0,38.9,31.9,27.4,0000.0,0010.22,0003.79,0002.07
2022-06-06 13:51:00,,0823.4,4.99,0.00,30.1,29.0,00.0,38.9,32.0,26.6,0000.0,0010.65,0003.78,0002.07
2022-06-06 13:52:00,,0823.4,4.99,0.00,30.1,29.1,00.0,39.0,32.0,26.7,0000.0,0010.53,0003.76,0002.06
2022-06-06 13:53:00,,0823.3,5.01,0.00,30.1,29.1,00.0,39.0,32.0,25.6,0000.0,0010.56,0003.76,0002.06
2022-06-06 13:54:00,,0823.3,5.00,0.00,30.1,29.1,00.0,39.0,32.0,26.4,0000.0,0011.33,0003.76,0002.05
2022-06-06 13:55:00,,0823.3,5.00,0.00,30.1,29.1,00.0,39.0,32.0,26.7,0000.0,0011.51,0003.76,0002.07
2022-06-06 13:56:00,,0823.4,5.01,0.00,30.1,29.1,00.0,39.0,32.0,27.1,0000.0,0011.56,0003.75,0002.10
2022-06-06 13:57:00,,0823.5,5.01,0.00,30.1,29.1,00.0,39.0,32.0,26.2,0000.0,0011.81,0003.79,0002.12
2022-06-06 13:58:00,,0823.5,4.99,0.00,30.2,29.2,00.0,39.0,32.0,26.2,0000.0,0011.75,0003.82,0002.14
2022-06-06 13:59:00,,0823.6,5.01,0.00,30.2,29.2,00.0,39.0,32.0,26.5,0000.0,0011.11,0003.81,0002.16
